Regional Weather Roundup
Issued by NWS

Home | Current Version | Previous Version | Graphics & Text | Print | Product List | Glossary On
Versions: 1 2 3 4 5 6 7 8 9 10 11 12 13 14 15 16 17 18 19 20 21 22 23 24 25 26 27 28 29 30 31 32 33 34 35 36 37 38 39 40 41 42 43 44 45 46 47 48 49 50
646
ASUS43 KMKX 191111
RWRWI

WISCONSIN REGIONAL WEATHER ROUNDUP
NATIONAL WEATHER SERVICE MILWAUKEE/SULLIVAN WI
500 AM CST SUN FEB 19 2017

NOTE: "FAIR" INDICATES FEW OR NO CLOUDS BELOW 12,000 FEET WITH NO
SIGNIFICANT WEATHER AND/OR OBSTRUCTIONS TO VISIBILITY.

WIZ001-002-006>008-014>016-023>028-191200-
NORTHWEST WISCONSIN

CITY           SKY/WX    TMP DP  RH WIND       PRES   REMARKS
SUPERIOR ARPT  CLEAR     28  27  96 CALM      29.93S
ASHLAND        CLOUDY    35  28  75 W5        29.93R WCI  31
HAYWARD        CLEAR     28  25  88 CALM      29.92R
SIREN          CLEAR     28  27  96 CALM      29.93R
CUMBERLAND     CLEAR     30  30 100 CALM      29.92R
RICE LAKE      CLEAR     29  28  97 CALM      29.93S
CHETEK         CLEAR     28  28  99 CALM      29.92S FOG
LADYSMITH      CLEAR     30  29  95 CALM      29.93S
EAU CLAIRE     PTCLDY    28  27  96 CALM      29.92S FOG
MENOMONIE      CLEAR     30  29  96 CALM      29.93S
NEW RICHMOND   CLEAR     29  29 100 CALM      29.93R
OSCEOLA        CLEAR     28  28 100 CALM      29.95R
$$

WIZ003>005-009-010-017-018-191200-
NORTH CENTRAL WISCONSIN

CITY           SKY/WX    TMP DP  RH WIND       PRES   REMARKS
MANITOWISH WTR CLEAR     24  24 100 CALM      29.91R
ARBOR VITAE    CLEAR     32  29  90 CALM      29.91R
WOODRUFF       CLEAR     32  29  90 CALM      29.91R
RHINELANDER    CLEAR     38  29  70 NW3       29.91R
EAGLE RIVER    CLEAR     29  24  84 CALM      29.90R
LAND O LAKES   CLEAR     28  25  90 CALM      29.91R
PHILLIPS       CLEAR     27  27 100 CALM      29.91R
TOMAHAWK       CLEAR     30  28  90 CALM      29.91S
MEDFORD        CLEAR     35  32  89 CALM      29.91S
MERRILL        NOT AVBL
$$

WIZ029-030-035-036-043>047-191200-
CENTRAL WISCONSIN

CITY           SKY/WX    TMP DP  RH WIND       PRES   REMARKS
WAUSAU         CLEAR     32  30  92 CALM      29.91R
MOSINEE        CLEAR     34  32  93 SW3       29.93R
MARSHFIELD     CLEAR     36  31  82 SW5       29.92R WCI  32
STEVENS POINT  CLEAR     28  28 100 CALM      29.95R
WAUPACA        CLOUDY    37  32  81 CALM      29.94R
WAUTOMA        CLEAR     30  29  96 CALM      29.95R
WISC RAPIDS    CLEAR     28  28 100 CALM      29.95R
CAMP DOUGLAS   CLEAR     26  24  93 CALM      29.94R
$$

WIZ011>013-019>022-031-037>040-048>050-191200-
NORTHEAST WISCONSIN

CITY           SKY/WX    TMP DP  RH WIND       PRES   REMARKS
ANTIGO         CLEAR     26  24  91 NW3       29.91R
SHAWANO        CLOUDY    39  32  76 CALM      29.92R
OCONTO         MOCLDY    33  29  86 CALM      29.91R
STURGEON BAY   PTCLDY    41  30  65 W6        29.92R
GREEN BAY      CLOUDY    37  33  85 CALM      29.92R
MANITOWOC      CLOUDY    43  32  65 MISG      29.92R
APPLETON       CLOUDY    36  30  80 W10       29.92R WCI  28
CLINTONVILLE   CLOUDY    37  32  81 CALM      29.91R
OSHKOSH        CLOUDY    40  30  67 W8        29.93R WCI  34
$$

WIZ032>034-041-042-053>061-191200-
SOUTHWEST WISCONSIN

CITY           SKY/WX    TMP DP  RH WIND       PRES   REMARKS
LA CROSSE      CLEAR     28  26  92 SE6       29.95R WCI  22
SPARTA         CLEAR     22  22  97 CALM      29.96R
VIROQUA        CLEAR     45  30  56 CALM      29.93S
BOSCOBEL       CLEAR     25  22  88 CALM      29.97R
PRAIRIE DU CHI FOG       28  27  96 CALM      29.96R VSB 1/4
PLATTEVILLE    CLEAR     38  37  96 CALM      29.96R
$$

WIZ056-057-062-063-064-067-068-191200-
SOUTH CENTRAL WISCONSIN

CITY           SKY/WX    TMP DP  RH WIND       PRES   REMARKS
REEDSBURG      CLEAR     28  28 100 CALM      29.95S
BARABOO/DELLS  CLEAR     30  28  92 CALM      29.95S
LONE ROCK      CLEAR     27  26  96 CALM      29.97R
MINERAL POINT  CLEAR     43  34  70 CALM      29.95R
MADISON        CLEAR     29  27  92 CALM      29.95R
MIDDLETON      CLEAR     31  30  96 CALM      29.96R
WATERTOWN      CLEAR     29  29 100 CALM      29.95R
MONROE         CLEAR     46  30  53 N3        29.95R
JANESVILLE     CLEAR     30  30 100 CALM      29.95R
$$

WIZ051-052-058>065-066-070>072-191200-
SOUTHEAST WISCONSIN

CITY           SKY/WX    TMP DP  RH WIND       PRES   REMARKS
MILWAUKEE      CLEAR     44  31  60 NW8       29.94R
WAUKESHA         N/A     34  30  86 NW3       29.95R
MILWAUKEE/TIMM PTCLDY    37  30  75 W3        29.95S
RACINE         CLEAR     43  31  62 NW6       29.96R
KENOSHA        CLEAR     41  31  67 NW6       29.94R
FOND DU LAC    CLOUDY    33  28  81 S3        29.94R
SHEBOYGAN      CLOUDY    41  31  67 W7        29.92R
WEST BEND      CLOUDY    39  32  75 W3        29.95R
JUNEAU         CLOUDY    34  30  85 CALM      29.96R
$$

LSZ147-162-191200-
LAKE SUPERIOR

STATION/POSITION TIME  TEMP    WIND        PRES    WAVE
                       AIR SEA DIR/SP/G            HT/PER
                 (UTC) (F)     (DEG/KT/KT) (MB)    (FT/S)
DEVILS ISLAND    1100   38     320/  5/  5 1014.3R
PORT WING        1040   31     130/  1/  2 1013.9R
SAXON HARBOR     1040   31     190/  4/  6 1013.2R
$$

LMZ867-665-643>646-191200-
LAKE MICHIGAN

STATION/POSITION TIME  TEMP    WIND        PRES    WAVE
                       AIR SEA DIR/SP/G            HT/PER
                 (UTC) (F)     (DEG/KT/KT) (MB)    (FT/S)
CHAMBERS ISLAND  1040   37     210/  3/  5 1012.2R
NORTHPORT PIER   1040   44     280/  5/ 11 1012.2R
SISTER BAY       1035   39        CALM       N/A
ALGOMA LAKESHORE 0940          320/  6/  9   N/A
KEWAUNEE LAKESHO 1048   43     300/  5/  8 1012.2R
SHEBOYGAN LAKESH 1100   46     280/ 11/ 12 1013.2R
PORT WASHINGTON  1040   45     290/  8/ 10 1014.6R
MILWAUKEE LAKESH 1050   47     300/ 10/ 13   N/A
KENOSHA   LAKESH 1100   45     290/  5/  6 1014.2
$$

TC  - TEMPERATURE IN CELSIUS
VSB - VISIBILITY IN STATUTE MILES
WCI - WIND CHILL INDEX
HX  - HEAT INDEX





USA.gov is the U.S. government's official web portal to all federal, state and local government web resources and services.